Location: México DF
(19.4326°N, 99.1332°W)
Time: 00:53:57
(UTC+00:00)

ISS - Pass Details

Date: 06 October 2024
Orbit: 412 x 423 km, 51.6° (Epoch: 10 October)

Event Time Altitude Azimuth Distance (km) Brightness Sun altitude
Rises 00:12:15 0° 336° (NNW) 2,351 0.3 1.2°
Reaches altitude 10° 00:14:35 10° 351° (N) 1,490 -0.9 0.6°
Maximum altitude 00:17:24 25° 48° (NE) 896 -2.5 0.0°
Drops below altitude 10° 00:20:12 10° 105° (ESE) 1,494 -1.5 -0.7°
Sets 00:22:33 0° 119° (ESE) 2,359 -0.5 -1.2°
